This demonstration page uses our WeatherBlox Daily Observations layout. Learn more.

Left ArrowRight Arrow

Hourly Observations for September 21, 2016

Temp ( °F °C ) Dew Point ( °F °C ) Humidity (%) Winds ( mph kmh ) Pressure ( in mb ) Visibility ( mi km ) Precip ( " mm )
12:15 am 00:15 Clear 70 21 70 21 100 100 NNW 7 11 30.15 1021 10 16 N/A
12:35 am 00:35 Clear 70 21 68 20 94 94 NW 7 11 30.12 1020 10 16 N/A
12:55 am 00:55 Clear 68 20 68 20 100 100 NW 3 6 30.12 1020 10 16 N/A
1:15 am 01:15 Clear 68 20 68 20 100 100 N N/A 30.12 1020 10 16 N/A
1:35 am 01:35 Clear 68 20 68 20 100 100 N N/A 30.12 1020 10 16 N/A
1:55 am 01:55 Clear 66 19 66 19 100 100 NW 5 7 30.12 1020 7 11 N/A
2:15 am 02:15 Clear 64 18 64 18 100 100 N N/A 30.12 1020 7 11 N/A
2:35 am 02:35 Partly Cloudy 68 20 68 20 100 100 NNW 3 6 30.12 1020 10 16 N/A
2:55 am 02:55 Cloudy 68 20 68 20 100 100 NNW 6 9 30.12 1020 10 16 N/A
3:15 am 03:15 Cloudy 68 20 68 20 100 100 WNW 6 9 30.15 1021 10 16 N/A
3:35 am 03:35 Cloudy 68 20 66 19 94 94 NNW 3 6 30.15 1021 10 16 N/A
3:55 am 03:55 Partly Cloudy 68 20 66 19 94 94 NW 5 7 30.15 1021 10 16 N/A
4:15 am 04:15 Partly Cloudy 68 20 66 19 94 94 NW 6 9 30.15 1021 10 16 N/A
4:35 am 04:35 Clear 68 20 66 19 94 94 NW 6 9 30.15 1021 10 16 N/A
4:55 am 04:55 Clear 68 20 66 19 94 94 N N/A 30.15 1021 10 16 N/A
5:15 am 05:15 Clear 68 20 64 18 88 88 NNW 3 6 30.15 1021 10 16 N/A
5:35 am 05:35 Clear 68 20 66 19 94 94 NNW 5 7 30.15 1021 10 16 N/A
5:55 am 05:55 Clear 68 20 66 19 94 94 NNW 5 7 30.15 1021 10 16 N/A
6:15 am 06:15 Clear 68 20 66 19 94 94 NNW 6 9 30.15 1021 10 16 N/A
6:35 am 06:35 Clear 66 19 66 19 100 100 N 8 13 30.15 1021 10 16 N/A
6:55 am 06:55 Clear 68 20 66 19 94 94 NNW 6 9 30.15 1021 10 16 N/A
7:15 am 07:15 Sunny 68 20 66 19 94 94 N 5 7 30.15 1021 10 16 N/A
7:35 am 07:35 Sunny 68 20 66 19 94 94 NNW 5 7 30.15 1021 10 16 N/A
7:55 am 07:55 Sunny 68 20 66 19 94 94 N 7 11 30.18 1022 10 16 N/A
8:10 am 08:10 Sunny 68 20 66 19 94 94 N 8 13 30.18 1022 10 16 N/A
8:55 am 08:55 Sunny 70 21 66 19 88 88 N 7 11 30.18 1022 10 16 N/A
8:56 am 08:56 Sunny 70 21 66 19 88 88 N 8 13 30.18 1022 10 16 N/A
9:15 am 09:15 Sunny 70 21 66 19 88 88 NNE 10 17 30.18 1022 10 16 N/A
9:35 am 09:35 Sunny 70 21 64 18 83 83 N 9 15 30.18 1022 10 16 N/A
9:55 am 09:55 Sunny 72 22 64 18 78 78 NNE 9 15 30.18 1022 10 16 N/A
10:15 am 10:15 Sunny 72 22 64 18 78 78 NNE 8 13 30.21 1023 10 16 N/A
10:35 am 10:35 Sunny 73 23 66 19 78 78 NNE 6 9 30.21 1023 10 16 N/A
10:55 am 10:55 Sunny 73 23 66 19 78 78 NE 7 11 30.21 1023 10 16 N/A
11:15 am 11:15 Sunny 75 24 66 19 74 74 NNE 8 13 30.21 1023 10 16 N/A
11:35 am 11:35 Sunny 77 25 66 19 69 69 NNE 9 15 30.21 1023 10 16 N/A
11:55 am 11:55 Sunny 79 26 66 19 65 65 NNE 6 9 30.21 1023 10 16 N/A
12:15 pm 12:15 Sunny 81 27 66 19 62 62 NNE 9 15 30.21 1023 10 16 N/A
12:35 pm 12:35 Sunny 81 27 64 18 58 58 NNE 8 13 30.18 1022 10 16 N/A
12:55 pm 12:55 Sunny 82 28 64 18 55 55 NNE 8 13 30.18 1022 10 16 N/A
1:15 pm 13:15 Sunny 82 28 64 18 55 55 NNE 8 13 30.18 1022 10 16 N/A
1:35 pm 13:35 Sunny 84 29 63 17 48 48 NE 8 13 30.15 1021 10 16 N/A
1:55 pm 13:55 Sunny 84 29 63 17 48 48 NNE 7 11 30.15 1021 10 16 N/A
2:15 pm 14:15 Sunny 84 29 61 16 45 45 NE 10 17 30.15 1021 10 16 N/A
2:35 pm 14:35 Sunny 84 29 59 15 43 43 ENE 10 17 30.15 1021 10 16 N/A
2:55 pm 14:55 Sunny 84 29 61 16 45 45 E 8 13 30.15 1021 10 16 N/A
3:15 pm 15:15 Sunny 84 29 61 16 45 45 NE 8 13 30.15 1021 10 16 N/A
3:35 pm 15:35 Sunny 84 29 61 16 45 45 NE 8 13 30.15 1021 10 16 N/A
3:55 pm 15:55 Sunny 84 29 63 17 48 48 NE 9 15 30.15 1021 10 16 N/A
4:15 pm 16:15 Sunny 84 29 63 17 48 48 ENE 6 9 30.15 1021 10 16 N/A
4:35 pm 16:35 Sunny 82 28 63 17 51 51 ENE 6 9 30.15 1021 10 16 N/A
4:55 pm 16:55 Sunny 82 28 63 17 51 51 ENE 5 7 30.15 1021 10 16 N/A
5:15 pm 17:15 Sunny 82 28 63 17 51 51 E 6 9 30.15 1021 10 16 N/A
5:35 pm 17:35 Partly Cloudy 82 28 63 17 51 51 E 5 7 30.15 1021 10 16 N/A
5:55 pm 17:55 Partly Cloudy 82 28 64 18 55 55 NE 3 6 30.15 1021 10 16 N/A
6:15 pm 18:15 Sunny 81 27 63 17 54 54 ENE 7 11 30.15 1021 10 16 N/A
6:35 pm 18:35 Sunny 81 27 63 17 54 54 ENE 6 9 30.15 1021 10 16 N/A
6:55 pm 18:55 Sunny 81 27 64 18 58 58 NE 5 7 30.15 1021 10 16 N/A
7:15 pm 19:15 Clear 79 26 64 18 61 61 NE 6 9 30.15 1021 10 16 N/A
7:35 pm 19:35 Clear 79 26 64 18 61 61 NE 5 7 30.15 1021 10 16 N/A
7:55 pm 19:55 Clear 77 25 64 18 65 65 N N/A 30.15 1021 10 16 N/A
8:15 pm 20:15 Clear 77 25 64 18 65 65 E 3 6 30.15 1021 10 16 N/A
8:35 pm 20:35 Clear 77 25 66 19 69 69 NE 3 6 30.15 1021 10 16 N/A
8:55 pm 20:55 Clear 77 25 66 19 69 69 ENE 3 6 30.15 1021 10 16 N/A
9:15 pm 21:15 Clear 75 24 66 19 74 74 NE 5 7 30.18 1022 10 16 N/A
9:35 pm 21:35 Clear 72 22 68 20 88 88 N 7 11 30.18 1022 10 16 N/A
9:55 pm 21:55 Clear 73 23 68 20 83 83 N 5 7 30.18 1022 10 16 N/A
10:15 pm 22:15 Partly Cloudy 72 22 68 20 88 88 N N/A 30.18 1022 10 16 N/A
10:35 pm 22:35 Partly Cloudy 70 21 68 20 94 94 NW 3 6 30.18 1022 10 16 N/A
10:55 pm 22:55 Clear 68 20 68 20 100 100 NNE 5 7 30.18 1022 10 16 N/A
11:15 pm 23:15 Clear 70 21 68 20 94 94 WNW 6 9 30.18 1022 10 16 N/A
11:35 pm 23:35 Clear 68 20 66 19 94 94 NNW 3 6 30.18 1022 10 16 N/A

Powered by AerisWeather